Location: Lake Almanor
(40.2485°N, 121.1442°W)
Time: 18:55:35
(UTC-08:00)

STARLINK-1082 - Pass Details

Date: 03 February 2020
Orbit: 349 x 351 km, 53.0° (Epoch: 21 February)

Event Time Altitude Azimuth Distance (km) Brightness Sun altitude
Rises 17:51:45 0° 306° (NW) 2,174 7.3 -5.6°
Reaches altitude 10° 17:53:47 10° 303° (WNW) 1,328 6.2 -6.0°
Maximum altitude 17:56:42 61° 223° (SW) 408 3.3 -6.5°
Drops below altitude 10° 17:59:37 10° 141° (SE) 1,320 5.3 -7.0°
Enters shadow 18:03:20 -6° 137° (SE) 2,873 7.0 -7.7°
